[Iaude] MPEC T143: 2016 TG56 [a=1.41,e=0.14,i=28.4,H=23.4]

mpec at si.edu mpec at si.edu
Thu Oct 13 12:41:39 EDT 2016


M.P.E.C. 2016-T143                               Issued 2016 Oct. 13, 16:37 UT
 
     The Minor Planet Electronic Circulars contain information on unusual
         minor planets and routine data on comets.  They are published
    on behalf of Division F of the International Astronomical Union by the
          Minor Planet Center, Smithsonian Astrophysical Observatory,
                          Cambridge, MA 02138, U.S.A.

             Prepared using the Tamkin Foundation Computer Network

                              MPC at CFA.HARVARD.EDU
            URL http://www.minorplanetcenter.net/    ISSN 1523-6714


                                   2016 TG56
 
Observations:
     K16T56G* C2016 10 10.47373 01 29 53.489+32 09 21.42         21.5 wLET143F51
     K16T56G  C2016 10 10.48516 01 29 49.319+32 10 19.82         21.8 wLET143F51
     K16T56G  C2016 10 10.50818 01 29 40.993+32 12 16.44         21.6 wLET143F51
     K16T56G _C2016 10 11.57300401 23 26.036+33 41 27.17         21.8 RUET143568
     K16T56G _C2016 10 11.57404201 23 25.663+33 41 32.13         21.8 RUET143568
     K16T56G _C2016 10 11.57508301 23 25.282+33 41 37.21         21.8 RUET143568
     K16T56G KC2016 10 13.49044 01 11 56.64 +36 12 28.4                oET143291
     K16T56G KC2016 10 13.49408 01 11 55.28 +36 12 44.2                oET143291
     K16T56G KC2016 10 13.49771 01 11 53.91 +36 13 00.6          20.8 RoET143291
 
Observer details:
291 LPL/Spacewatch II.  Observer R. S. McMillan.  1.8-m f/2.7 reflector + CCD.
568 Mauna Kea.  Observers R. J. Wainscoat, R. Weryk, C. Wipper.  Measurer
    M. Micheli.  3.6-m Canada-France-Hawaii Telescope + CCD.
F51 Pan-STARRS 1, Haleakala.  Observers B. Gibson, T. Goggia, S. Kahale,
    A. Schultz, M. Willman.  Measurers K. Chambers, S. Chastel, L. Denneau,
    H. Flewelling, M. Huber, E. Lilly, E. Magnier, R. Wainscoat, C. Waters,
    R. Weryk.  1.8-m Ritchey-Chretien + CCD.
 
Orbital elements:
2016 TG56                                                Earth MOID = 0.2198 AU
Epoch 2016 July 31.0 TT = JDT 2457600.5                 MPC
M 329.79964              (2000.0)            P               Q
n   0.58594989     Peri.  353.23697     +0.99176994     -0.07512780
a   1.4143679      Node    12.57243     +0.12790680     +0.61729692
e   0.1376890      Incl.   28.44271     -0.00567843     +0.78313494
P   1.68           H   23.4           G   0.15           U   9
Residuals in seconds of arc
161010 F51  0.1-  0.1+    161011 568  0.1+  0.2+    161013 291  0.3+  0.1+
161010 F51  0.2-  0.2+    161011 568  0.2+  0.1+    161013 291  0.1+  0.3-
161010 F51  0.2+  0.4-    161011 568  0.1+  0.2+    161013 291  0.3-  0.1+

Ephemeris:
2016 TG56                a,e,i = 1.41, 0.14, 28                  q = 1.2196
Date    TT    R. A. (2000) Decl.     Delta      r     Elong.  Phase     V
2016 09 13    03 05 19.5 -06 47 43   0.3228  1.2204   125.0    42.5    23.0
...
2016 09 28    02 29 38.4 +12 28 35   0.2536  1.2204   145.9    27.4    22.1
...
2016 10 06    01 54 26.4 +25 21 36   0.2428  1.2229   154.2    20.9    21.8
...
2016 10 12    01 20 56.5 +34 16 07   0.2499  1.2259   153.0    21.7    21.9
2016 10 13    01 14 57.1 +35 35 06   0.2523  1.2265   152.2    22.3    21.9
2016 10 14    01 08 53.4 +36 50 32   0.2550  1.2271   151.2    23.0    22.0
...
2016 10 20    00 32 09.9 +43 03 20   0.2774  1.2313   144.1    28.3    22.3
...
2016 10 28    23 47 49.2 +48 01 12   0.3198  1.2383   134.3    35.0    22.8
...
2016 11 12    22 56 52.4 +51 21 42   0.4196  1.2554   120.4    42.8    23.7

A. U. Tomatic                (C) Copyright 2016 MPC           M.P.E.C. 2016-T143




More information about the Iaude mailing list